FENGYUN 1C DEB, 32362

Orbit data source: Space-Track

FENGYUN 1C DEB, 32362 is space debris in SSO originally from a launch on Mon, 10 May 1999 UTC launched from the Taiyaun Space Center, China (TSC). Fengyun 1C debris stems from the Chinese weather satellite Fengyun-1C, which was intentionally destroyed by a Chinese anti-satellite missile in 2007. This event dramatically increased the amount of space debris, with thousands of trackable fragments posing hazards to satellites and human spaceflight. The Fengyun 1C debris cloud has become a focal point in discussions about space sustainability and the need for international regulations to prevent the creation of new debris.

Loading next visibility...
Identifier
32362, 1999-025CZF
Orbit
SSO
Country
Flag of CNCN / PRC
Related business
Manufacturer
Unknown
Mission
Spacecraft
Bus & Motor
Unknown
Mass
Unknown
Launch date (UTC)
1999-05-10 (27 years ago)
Launch vehicle
Unknown
Launch site
Taiyaun Space Center, China (TSC)
Object type
Payload
Rocket body
Debris
Shape & HBR
Unknown shape, 0.1 m
Radar Cross Section
Medium (>0.1 m² and <1 m²)

Expand to show TLE details & history
Last TLE update: 1 week ago

TLE from 1 week ago
0 FENGYUN 1C DEB
1 32362U 99025CZF 26151.74100393  .00002628  00000-0  25371-2 0  9991
2 32362  99.8465 130.7140 0267909 212.8761 145.5469 13.66110199934507
Epoch: 2026-05-31T17:47Z
TLE epoch observation values (Epoch: 2026-05-31T17:47:02.739Z)
Latitude
-0.00003°
Longitude
-25.28574°
Altitude
1,181.339 km
Speed
7.181 km/s
True Right ascension
08h 42m 51s
True Declination
0° 00' 00"
Sunlit
Object was in daylight at epoch
Visualization orbit readout
Latitude
Unknown
Longitude
Unknown
Altitude
Unknown
Speed
Unknown
Apparent Right ascension
Unknown
Apparent Declination
Unknown
Sunlit
N/A
Visualization observer readout
Local Sidereal Time
08:20:56
Azimuth
Unknown
Elevation
Unknown
Doppler factor
Unknown
Orbital elements
Apogee altitude
1,208.811 km
Perigee altitude
812.896 km
Semi-major axis
7,388.991 km
Eccentricity
0.02679
Inclination
99.8465°
RAAN
130.714°
Arg. of periapsis
212.8761°
True anomaly
147.23674°
Mean anomaly
145.5469°
Eccentric anomaly
146.39644°
Mean motion
3.41716 °/min
Orbital period
105.35 mins
BSTAR
0.0025371
Loading maneuver chart data...
Computing Atmospheric mass density...
Loading historical data...
Loading historical data...
Loading historical data...
Loading historical data...
Loading historical data...
Loading historical data...
Loading historical data...

Documentation

Showing up to 5 results
|